Location: Waco, TX
(31.5480°N, 97.1670°W)
Time: 00:59:29
(UTC-06:00)

ISS - Pass Details

Date: 18 January 2018
Orbit: 402 x 407 km, 51.6° (Epoch: 21 January)

Event Time Altitude Azimuth Distance (km) Brightness Sun altitude
Rises 06:43:07 0° 293° (WNW) 2,319 - -9.7°
Reaches altitude 10° 06:46:00 10° 264° (W) 1,456 - -9.2°
Exits shadow 06:46:07 10° 263° (W) 1,434 -1.6 -9.1°
Maximum altitude 06:47:39 13° 234° (SW) 1,273 -1.6 -8.8°
Drops below altitude 10° 06:49:18 10° 203° (SSW) 1,453 -1.1 -8.5°
Sets 06:52:11 0° 175° (S) 2,308 0.4 -7.9°
